Regional Weather Roundup
Issued by NWS Cleveland, OH

Home | Current Version | Previous Version | Graphics & Text | Print | Product List | Glossary On
Versions: 1 2 3 4 5 6 7 8 9 10 11 12 13 14 15 16 17 18 19 20 21 22 23 24 25 26 27 28 29 30 31 32 33 34 35 36 37 38 39 40 41 42 43 44 45 46 47 48 49 50
000
ASUS41 KCLE 041802
RWRCLE
OHIO REGIONAL WEATHER ROUNDUP
NATIONAL WEATHER SERVICE CLEVELAND, OH
200 PM EDT MON MAY 04 2015

NOTE: "FAIR" INDICATES FEW OR NO CLOUDS BELOW 12,000 FEET WITH NO
SIGNIFICANT WEATHER AND/OR OBSTRUCTIONS TO VISIBILITY.

OHZ001>008-015>018-024>027-034-035-043-044-041900-
   NORTHWEST OHIO

CITY           SKY/WX    TMP DP  RH WIND       PRES   REMARKS
DEFIANCE       CLOUDY    67  60  78 S8        30.12F
FINDLAY        LGT RAIN  70  57  63 W15       30.14F
TOLEDO EXPRESS CLOUDY    65  60  84 SW8       30.11S
TOLEDO EXEC    CLOUDY    65  58  78 SW13      30.13R
LIMA           LGT RAIN  69  57  65 W13       30.15F
$$

OHZ009>014-019>023-028>033-038-089-041900-
   NORTHEAST OHIO

CITY           SKY/WX    TMP DP  RH WIND       PRES   REMARKS
CLE-HOPKINS    CLOUDY    77  50  38 SW16G24   30.13S
CLE-LAKEFRONT  PTSUNNY   69  52  54 W20G31    30.11R
CUY CO. ARPT   CLOUDY    82  52  34 SW18G28   30.12S
LORAIN-ELYRIA  PTSUNNY   77  54  44 W18G25    30.13R
ASHTABULA      MOSUNNY   79  46  31 SW18G30   30.11S
AKRON-CANTON   PTSUNNY   81  47  30 SW18G25   30.15S
WOOSTER        PTSUNNY   79  49  34 SW20G28   30.14F
MANSFIELD      PTSUNNY   76  49  38 SW16G32   30.15F
YOUNGSTOWN     CLOUDY    80  48  32 SW20G28   30.14S
$$

OHZ042-051>053-060>062-070>072-077>081-041900-
  SOUTHWEST OHIO

CITY           SKY/WX    TMP DP  RH WIND       PRES   REMARKS
CINC-COVINGTON PTSUNNY   79  54  41 SW14G20   30.18F
CINC-LUNKEN    MOSUNNY   78  56  46 SW18      30.18F
HAMILTON       PTSUNNY   80  55  42 SW12G20   30.18F
DAYTON         CLOUDY    75  54  47 W14       30.18F
WRIGHT-PAT AFB CLOUDY    76  54  46 W16       30.17S
DAYTON GENERAL PTSUNNY   77  52  41 W14       30.17F
WILMINGTON     MOSUNNY   76  51  41 SW14      30.18F
$$

OHZ036-037-039>041-045>050-054>059-063>069-073>076-082>088-041900-
  CENTRAL AND SOUTHEAST OHIO

CITY           SKY/WX    TMP DP  RH WIND       PRES   REMARKS
COLUMBUS       PTSUNNY   80  51  36 SW14G21   30.16F
OSU AIRPORT    PTSUNNY   81  52  36 SW18      30.16F
BOLTON FIELD   PTSUNNY   79  54  41 SW16G24   30.17F
RICKENBACK AFB PTSUNNY   79  52  38 SW16G25   30.16F
NEWARK         MOSUNNY   78  53  41 SW14G23   30.17S
MARION         CLOUDY    76  52  43 W20G29    30.16R
LANCASTER      PTSUNNY   79  52  38 SW14G24   30.19S
ZANESVILLE     MOSUNNY   78  48  34 W14G21    30.18S
NEW PHILLY     MOSUNNY   83  49  30 W10G24    30.16F
$$



USA.gov is the U.S. government's official web portal to all federal, state and local government web resources and services.